{"data":{"norad_id":62384,"epoch":"2026-09-22T04:43:29.658720Z","epoch_age_seconds":165712,"freshness":"FRESH","line1":"1 62384U 24247H   26265.19687105  .00003392  00000+0  20026-3 0  9999","line2":"2 62384  44.9971 199.1504 0001134 272.9298  87.1450 15.13515968 96875","mean_motion":15.13515968,"eccentricity":0.0001134,"inclination_deg":44.9971,"raan_deg":199.1504,"arg_perigee_deg":272.9298,"mean_anomaly_deg":87.145,"bstar":0.00020026,"rev_number":9687,"period_min":95.142702848577,"perigee_km":524.70476413303,"apogee_km":526.27050620028,"semimajor_km":6903.6246351667,"source":"CELESTRAK","updated_at":"2026-09-23T09:00:21.392522Z"}}